Regional Weather Roundup
Issued by NWS

Home | Current Version | Previous Version | Text Only | Print | Product List | Glossary Off
Versions: 1 2 3 4 5 6 7 8 9 10 11 12 13 14 15 16 17 18 19 20 21 22 23 24 25 26 27 28 29 30 31 32 33 34 35 36 37 38 39 40 41 42 43 44 45 46 47 48 49 50

000
ASUS43 KDTX 272001
RWRMI
MICHIGAN HOURLY REGIONAL WEATHER ROUNDUP
NATIONAL WEATHER SERVICE DETROIT/PONTIAC MI
400 PM EDT WED AUG 27 2014

NOTE: "FAIR" INDICATES FEW OR NO CLOUDS BELOW 12,000 FEET WITH NO
SIGNIFICANT WEATHER AND/OR OBSTRUCTION TO VISIBILITY.

MIZ047>049-052>055-059>063-066>070-074>076-081>083-272100-
SOUTHEAST LOWER MICHIGAN

CITY           SKY/WX    TMP DP  RH WIND       PRES   REMARKS
ADRIAN         SUNNY     80  58  46 NE9       30.09F
ALMA           CLOUDY    74  56  54 NW9       30.13F
ANN ARBOR      MOSUNNY   78  59  51 N8        30.09F
BAD AXE        SUNNY     71  53  51 NW8       30.12F
CARO           SUNNY     72  59  65 NW10      30.12S
DETROIT CITY   MOSUNNY   80  57  45 VRB3      30.08F
DETROIT        MOSUNNY   80  61  52 NW7       30.09F
FLINT          MOSUNNY   77  58  51 W7        30.12F
GROSSE ILE     PTSUNNY   79  63  57 NE7       30.07F
HILLSDALE      MOSUNNY   79  59  49 NW8       30.11F
HOWELL         MOSUNNY   73  57  57 N6        30.12S

CITY           SKY/WX    TMP DP  RH WIND       PRES   REMARKS
JACKSON        MOSUNNY   79  63  57 N5        30.11F
LAMBERTVILLE   MOSUNNY   81  61  50 N7        30.08F
LANSING        MOSUNNY   74  58  57 NW8       30.12F
LAPEER         FAIR      74  56  53 NW7       30.12F
MASON          MOSUNNY   74  57  55 CALM      30.12F
MONROE         MOSUNNY   79  61  53 N8        30.07F
MT. CLEMENS    MOSUNNY   76  57  51 NW9       30.08F
PONTIAC        PTSUNNY   74  54  49 N7        30.10F
PORT HOPE        N/A     69  53  56 CALM      30.12S
PORT HURON     MOSUNNY   72  63  73 N9        30.10F
TRI CITIES     PTSUNNY   76  57  51 NW9       30.13F
TROY           MOSUNNY   76  55  46 N5        30.11F
SAGINAW HB     PTSUNNY   72  55  56 NW6       30.11S
$$
MIZ043>046-050>051-056>058-064>065-071>073-077>080-272100-
SOUTHWEST LOWER MICHIGAN

CITY           SKY/WX    TMP DP  RH WIND       PRES   REMARKS
BATTLE CREEK   SUNNY     78  58  49 N9        30.13F
BENTON HARBOR  MOSUNNY   73  57  57 VRB7      30.14F
BIG RAPIDS     MOSUNNY   74  57  54 NW8       30.13F
COLDWATER      MOSUNNY   80  60  50 N8        30.11F
FREMONT        MOCLDY    77  51  40 NW7       30.13F
HOLLAND        SUNNY     74  62  66 NW9       30.15S
GRAND RAPIDS   PTSUNNY   76  61  59 N8        30.13F
IONIA          FAIR      74  58  58 NW5       30.12F
KALAMAZOO      MOSUNNY   80  55  42 N12       30.12F
LUDINGTON      SUNNY     69  53  56 NW9G17    30.17S
MARSHALL       SUNNY     76  59  55 N3        30.11F
MOUNT PLEASANT PTSUNNY   73  56  54 CALM      30.12F
MUSKEGON       PTSUNNY   74  60  61 NW9       30.15S
SOUTH HAVEN    SUNNY     74  59  59 NW12      30.14S
$$
MIZ016>042-272100-
NORTHERN LOWER MICHIGAN

CITY           SKY/WX    TMP DP  RH WIND       PRES   REMARKS
ALPENA         PTSUNNY   69  48  47 NW9G21    30.12S
BEAVER ISLAND  MOSUNNY   67  53  60 W14       30.17F
BELLAIRE       MOSUNNY   67  47  49 NW7       30.17S
CADILLAC       PTSUNNY   72  54  53 N8G24     30.14F
CHARLEVOIX     CLOUDY    65  51  60 W12       30.20S
FRANKFORT      MOSUNNY   69  52  56 NW7       30.18S
GAYLORD        PTSUNNY   66  49  54 VRB7      30.16S
GRAYLING       MOSUNNY   71  50  46 W10       30.16S
HARBOR SPRINGS CLOUDY    64  51  62 W7        30.16S
HOUGHTON LAKE  MOSUNNY   69  50  50 W8        30.15F
MANISTEE       SUNNY     68  54  60 N10G16    30.18F
OSCODA         CLOUDY    71  52  49 N9        30.11F
PELLSTON       CLOUDY    66  50  56 W13       30.16S
TRAVERSE CITY  MOSUNNY   69  51  52 N10       30.15F
$$
MIZ007>008-015-272100-
EASTERN UPPER MICHIGAN

CITY           SKY/WX    TMP DP  RH WIND       PRES   REMARKS
KINROSS        CLOUDY    63  46  55 NW18G25   30.13S
MACKINAC ISLAN CLOUDY    64  50  60 W16G22    30.13F
NEWBERRY       PTSUNNY   63  44  49 NW15G21   30.16S
S. S. MARIE    CLOUDY    61  47  59 NW12G21   30.14S
$$
MIZ004>006-011>014-085-272100-
CENTRAL UPPER MICHIGAN

CITY           SKY/WX    TMP DP  RH WIND       PRES   REMARKS
MANISTIQUE     PTSUNNY   69  48  47 NW12      30.16S
ESCANABA       PTSUNNY   64  54  68 SE9       30.16F
MENOMINEE      MOSUNNY   68  52  56 W3        30.16F
SAWYER-GWINN   MOSUNNY   64  46  52 NE8       30.18F
$$
MIZ001>003-009>011-084-272100-
WESTERN UPPER MICHIGAN

CITY           SKY/WX    TMP DP  RH WIND       PRES   REMARKS
IRON MOUNTAIN  MOSUNNY   70  47  43 VRB7      30.16F
HOUGHTON       MOSUNNY   65  45  48 NW15G23   30.18F
COPPER HARBOR    N/A     60  50  69 N15       30.17S
$$

ABBREVIATIONS USED IN REMARKS
   TC - TEMPERATURE IN CELSIUS
  WCI - WIND CHILL INDEX
   HX - HEAT INDEX
  VSB - VISIBILITY



USA.gov is the U.S. government's official web portal to all federal, state and local government web resources and services.